GW2877 Weather Reports


time (UTC)temp
C
wind
direction
speed
KPH
gust
KPH
rain 1hr
cm
rain 24hr
cm
rain mn
cm
humidity
%
barometer
mb
20260503194602 30 239 3.2 8.0 0.03 0.03 0.03 45 1009.3
20260503194043 30 323 1.6 6.4 0.03 0.03 0.03 48 1009.3
20260503193542 29 186 3.2 8.0 0.03 0.03 0.03 48 1009.3
20260503193058 29 293 3.2 8.0 0.03 0.03 0.03 46 1009.5
20260503192542 29 155 3.2 8.0 0.03 0.03 0.03 48 1009.5
20260503192042 29 237 3.2 8.0 0.03 0.03 0.03 49 1009.5
20260503191554 29 246 1.6 6.4 0.03 0.03 0.03 47 1009.5
20260503191043 28 233 1.6 6.4 0.03 0.03 0.03 48 1009.4
20260503190548 28 156 1.6 6.4 0.03 0.03 0.03 47 1009.6
20260503190051 28 146 1.6 9.7 0.03 0.03 0.03 48 1009.6
20260503185542 28 228 3.2 9.7 0.03 0.03 0.03 48 1009.6
20260503185046 28 310 3.2 9.7 0.03 0.03 0.03 45 1009.7
20260503184603 28 164 3.2 9.7 0.00 0.00 0.00 49 1009.7
20260503184043 28 250 1.6 6.4 0.00 0.00 0.00 47 1009.7
20260503183542 27 186 1.6 6.4 0.00 0.00 0.00 47 1009.8
20260503183057 27 153 1.6 9.7 0.00 0.00 0.00 49 1009.7
20260503182544 27 163 3.2 9.7 0.00 0.00 0.00 49 1009.8
20260503182043 26 174 3.2 8.0 0.00 0.00 0.00 52 1009.8
20260503181554 26 303 3.2 8.0 0.00 0.00 0.00 53 1009.8
20260503181042 26 263 3.2 8.0 0.00 0.00 0.00 55 1009.8
20260503180546 26 281 3.2 8.0 0.00 0.00 0.00 58 1009.8
20260503180106 25 269 3.2 6.4 0.00 0.00 0.00 60 1009.9
20260503175541 25 185 1.6 4.8 0.00 0.00 0.00 61 1010.0
20260503175042 25 306 1.6 4.8 0.00 0.00 0.00 60 1009.9
20260503174610 24 271 1.6 6.4 0.00 0.00 0.00 60 1010.0
20260503174045 24 306 1.6 6.4 0.00 0.00 0.00 63 1010.0
20260503173543 23 225 1.6 4.8 0.00 0.00 0.00 63 1010.0
20260503173108 23 244 1.6 4.8 0.00 0.00 0.00 63 1010.1
20260503172543 23 163 1.6 3.2 0.00 0.00 0.00 64 1010.1
20260503172042 23 184 0.0 4.8 0.00 0.00 0.00 65 1010.2
20260503171550 22 322 1.6 4.8 0.00 0.00 0.00 69 1010.2
20260503171043 22 295 1.6 3.2 0.00 0.00 0.00 70 1010.2
20260503170544 22 180 1.6 4.8 0.00 0.00 0.00 73 1010.2
20260503170111 21 302 1.6 4.8 0.00 0.00 0.00 74 1010.2
20260503160107 15 128 0.0 1.6 0.00 0.00 0.00 90 1010.8
20260503150545 11 111 0.0 1.6 0.00 0.00 0.00 94 1011.2
20260503131044 10 0 0.0 6.4 0.00 0.00 0.00 95 1011.2
20260503130544 10 33 1.6 6.4 0.00 0.00 0.00 95 1011.1
20260503110544 9 92 0.0 1.6 0.00 0.00 0.00 95 1011.7
20260503081048 9 0 0.0 1.6 0.00 0.00 0.00 94 1012.8
20260503080547 9 0 0.0 1.6 0.00 0.00 0.00 94 1012.8
20260503072544 9 0 0.0 1.6 0.00 0.00 0.00 94 1012.8
20260503072045 9 0 0.0 1.6 0.00 0.00 0.00 94 1013.0
20260503071602 9 0 0.0 1.6 0.00 0.00 0.00 94 1013.0
20260503071045 9 106 0.0 1.6 0.00 0.00 0.00 93 1013.0
20260503070544 9 0 0.0 1.6 0.00 0.00 0.00 93 1012.9
20260503060111 10 0 0.0 1.6 0.00 0.00 0.00 93 1013.2
20260503055043 10 0 0.0 0.0 0.00 0.00 0.00 93 1013.3
20260503054602 10 0 0.0 0.0 0.00 0.00 0.00 92 1013.5
20260503054046 10 0 0.0 0.0 0.00 0.00 0.00 92 1013.6
20260503053544 10 0 0.0 0.0 0.00 0.00 0.00 92 1013.7
20260503053054 10 0 0.0 0.0 0.00 0.00 0.00 92 1013.8
20260503052542 10 0 0.0 0.0 0.00 0.00 0.00 92 1013.8
20260503052043 10 0 0.0 0.0 0.00 0.00 0.00 92 1013.7
20260503051552 10 0 0.0 0.0 0.00 0.00 0.00 92 1013.6
20260503051044 10 0 0.0 1.6 0.00 0.00 0.00 92 1013.5
20260503050541 10 0 0.0 1.6 0.00 0.00 0.00 92 1013.6
20260503050059 11 0 0.0 1.6 0.00 0.00 0.00 91 1013.6
20260503045546 11 0 0.0 1.6 0.00 0.00 0.00 91 1013.6
20260503045042 11 0 0.0 1.6 0.00 0.00 0.00 91 1013.5
20260503044556 11 106 0.0 1.6 0.00 0.00 0.00 91 1013.5
20260503044042 11 0 0.0 1.6 0.00 0.00 0.00 91 1013.6
20260503043542 11 0 0.0 1.6 0.00 0.00 0.00 91 1013.6
20260503043053 11 0 0.0 1.6 0.00 0.00 0.00 91 1013.7
20260503042542 11 0 0.0 1.6 0.00 0.00 0.00 90 1013.7
20260503042043 11 0 0.0 0.0 0.00 0.00 0.00 90 1013.7
20260503041556 11 0 0.0 0.0 0.00 0.00 0.00 90 1013.7
20260503041045 11 0 0.0 0.0 0.00 0.00 0.00 90 1013.6
20260503040541 11 0 0.0 0.0 0.00 0.00 0.00 90 1013.7
20260503040057 12 0 0.0 0.0 0.00 0.00 0.00 90 1013.6
20260503035543 12 0 0.0 0.0 0.00 0.00 0.00 89 1013.6
20260503035044 12 0 0.0 0.0 0.00 0.00 0.00 89 1013.5
20260503034554 12 0 0.0 0.0 0.00 0.00 0.00 89 1013.5
20260503034043 12 0 0.0 8.0 0.00 0.00 0.00 89 1013.3
20260503033545 12 167 0.0 8.0 0.00 0.00 0.00 89 1013.3
20260503033052 12 169 1.6 8.0 0.00 0.00 0.00 89 1013.2
20260503032542 12 182 1.6 9.7 0.00 0.00 0.00 88 1013.2
20260503032043 12 155 1.6 9.7 0.00 0.00 0.00 88 1013.2
20260503031551 12 150 1.6 4.8 0.00 0.00 0.00 88 1013.3
20260503031043 12 175 1.6 4.8 0.00 0.00 0.00 87 1013.2
20260503030543 12 182 3.2 4.8 0.00 0.00 0.00 87 1013.1
20260503030058 13 262 0.0 3.2 0.00 0.00 0.00 87 1013.0
20260503025543 13 186 0.0 3.2 0.00 0.00 0.00 87 1012.9
20260503025046 13 190 0.0 3.2 0.00 0.00 0.00 87 1012.8
20260503024549 13 178 0.0 3.2 0.00 0.00 0.00 87 1012.6
20260503024043 13 184 1.6 8.0 0.00 0.00 0.00 86 1012.5
20260503023542 13 191 1.6 8.0 0.00 0.00 0.00 86 1012.5
20260503023057 13 325 1.6 4.8 0.00 0.00 0.00 86 1012.6
20260503022543 13 196 1.6 6.4 0.00 0.00 0.00 86 1012.5
20260503022042 13 184 1.6 8.0 0.00 0.00 0.00 86 1012.7
20260503021556 13 159 1.6 9.7 0.00 0.00 0.00 85 1012.5
20260503021044 13 193 4.8 9.7 0.00 0.00 0.00 85 1012.4
20260503020544 13 208 4.8 8.0 0.00 0.00 0.00 85 1012.6
20260503020058 13 195 3.2 8.0 0.00 0.00 0.00 84 1012.6
20260503015544 13 187 3.2 8.0 0.00 0.00 0.00 84 1012.6
20260503015043 13 177 1.6 11.3 0.00 0.00 0.00 84 1012.4
20260503014546 14 219 3.2 11.3 0.00 0.00 0.00 83 1012.5
20260503014043 14 180 1.6 9.7 0.00 0.00 0.00 82 1012.6
20260503013543 14 215 3.2 9.7 0.00 0.00 0.00 82 1012.6
20260503013051 14 163 4.8 8.0 0.00 0.00 0.00 81 1012.6
20260503012544 15 180 3.2 8.0 0.00 0.00 0.00 81 1012.6
20260503012041 15 247 3.2 8.0 0.00 0.00 0.00 80 1012.8
20260503011549 15 218 4.8 8.0 0.00 0.00 0.00 79 1012.7
20260503011041 15 178 4.8 12.9 0.00 0.00 0.00 78 1012.7
20260503010542 15 235 3.2 12.9 0.00 0.00 0.00 78 1012.7
20260503010058 16 173 3.2 9.7 0.00 0.00 0.00 77 1012.7
20260503005540 16 186 3.2 9.7 0.00 0.00 0.00 77 1012.7
20260503005041 16 348 3.2 9.7 0.00 0.00 0.00 76 1012.5
20260503004559 16 228 1.6 9.7 0.00 0.00 0.00 75 1012.5
20260503004044 16 223 3.2 11.3 0.00 0.00 0.00 74 1012.5
20260503003543 17 190 3.2 11.3 0.00 0.00 0.00 73 1012.5
20260503003115 17 346 4.8 12.9 0.00 0.00 0.00 72 1012.6
20260503002544 17 250 3.2 14.5 0.00 0.00 0.00 72 1012.5
20260503002043 18 260 3.2 14.5 0.00 0.00 0.00 70 1012.5
20260503001605 18 278 3.2 14.5 0.00 0.00 0.00 71 1012.6
20260503001047 18 219 3.2 9.7 0.00 0.00 0.00 70 1012.7
20260503000542 17 171 3.2 9.7 0.00 0.00 0.00 71 1012.7
20260503000051 18 210 4.8 11.3 0.00 0.00 0.00 70 1012.7
20260502235540 18 183 4.8 11.3 0.00 0.00 0.00 70 1012.8
20260502235043 18 236 3.2 8.0 0.00 0.00 0.00 70 1012.8
20260502234552 17 220 1.6 12.9 0.00 0.00 0.00 71 1012.8
20260502234043 17 240 3.2 12.9 0.00 0.00 0.00 71 1012.9
20260502233544 17 232 4.8 12.9 0.00 0.00 0.00 70 1012.9
20260502233048 17 209 1.6 14.5 0.00 0.00 0.00 70 1012.9
20260502232546 18 192 3.2 14.5 0.00 0.00 0.00 70 1012.9
20260502232043 18 227 4.8 12.9 0.00 0.00 0.00 68 1012.9
20260502231552 18 235 3.2 9.7 0.00 0.00 0.00 70 1013.0
20260502231043 18 232 1.6 12.9 0.00 0.00 0.00 70 1013.1
20260502230543 18 193 3.2 16.1 0.00 0.00 0.00 70 1013.2
20260502230051 18 249 3.2 16.1 0.00 0.00 0.00 70 1013.2
20260502225549 18 223 3.2 9.7 0.00 0.00 0.00 70 1013.2
20260502225043 17 59 3.2 14.5 0.00 0.00 0.00 71 1013.2
20260502224556 17 156 4.8 14.5 0.00 0.00 0.00 71 1013.4
20260502224043 17 252 3.2 16.1 0.00 0.00 0.00 71 1013.4
20260502223543 17 208 4.8 14.5 0.00 0.00 0.00 70 1013.4
20260502223052 17 186 3.2 11.3 0.00 0.00 0.00 71 1013.4
20260502222543 17 186 4.8 12.9 0.00 0.00 0.00 71 1013.5
20260502222042 17 59 3.2 12.9 0.00 0.00 0.00 71 1013.7
20260502221552 17 237 3.2 11.3 0.00 0.00 0.00 71 1013.7
20260502221043 17 230 3.2 12.9 0.00 0.00 0.00 71 1013.6
20260502220542 17 261 3.2 12.9 0.00 0.00 0.00 71 1013.6
20260502220053 17 148 4.8 12.9 0.00 0.00 0.00 72 1013.6
20260502215542 17 340 4.8 11.3 0.00 0.00 0.00 72 1013.6
20260502215043 17 319 3.2 11.3 0.00 0.00 0.00 71 1013.6
20260502214549 17 86 3.2 11.3 0.00 0.00 0.00 70 1013.7
20260502214043 18 191 3.2 11.3 0.00 0.00 0.00 71 1013.8
20260502213543 17 350 3.2 9.7 0.00 0.00 0.00 71 1013.9
20260502213104 17 190 4.8 8.0 0.00 0.00 0.00 71 1013.9
20260502212543 17 223 4.8 8.0 0.00 0.00 0.00 72 1013.9
20260502212043 17 229 3.2 8.0 0.00 0.00 0.00 73 1013.9
20260502211554 16 206 3.2 9.7 0.00 0.00 0.00 73 1013.9
20260502211043 16 184 3.2 9.7 0.00 0.00 0.00 72 1014.0
20260502210542 16 245 4.8 9.7 0.00 0.00 0.00 73 1014.2
20260502210054 16 186 3.2 12.9 0.00 0.00 0.00 73 1014.3
20260502205542 16 211 3.2 12.9 0.00 0.00 0.00 73 1014.4
20260502205043 16 217 1.6 8.0 0.00 0.00 0.00 75 1014.7
20260502204550 16 306 3.2 8.0 0.00 0.00 0.00 74 1014.6
20260502204047 16 235 3.2 14.5 0.00 0.00 0.00 73 1014.7
20260502203543 16 111 3.2 14.5 0.00 0.00 0.00 72 1014.6
20260502203053 17 299 3.2 11.3 0.00 0.00 0.00 71 1014.5
20260502202543 17 180 4.8 11.3 0.00 0.00 0.00 71 1014.3
20260502202043 17 263 3.2 11.3 0.00 0.00 0.00 71 1014.4
20260502201556 17 221 4.8 9.7 0.00 0.00 0.00 73 1014.5
20260502201043 17 218 3.2 9.7 0.00 0.00 0.00 70 1014.5
20260502200543 17 181 3.2 9.7 0.00 0.00 0.00 71 1014.4
20260502200110 -17 0.0 0.0 0.00 0.00 0.00 1014.7
20260502195801 -17 0.0 0.0 0.00 0.00 0.00 1014.9